Location: Unspecified
(52.1971°N, 0.0000°E)
Time: 09:11:09
(UTC+00:00)

YUBILEINY - Pass Details

Date: 22 December 2019
Orbit: 1478 x 1509 km, 82.5° (Epoch: 26 January)

Event Time Altitude Azimuth Distance (km) Brightness Sun altitude
Rises 05:24:58 0° 347° (NNW) 4,613 ? -23.3°
Reaches altitude 10° 05:28:18 10° 357° (N) 3,631 ? -22.8°
Maximum altitude 05:36:01 34° 60° (ENE) 2,270 ? -21.6°
Drops below altitude 10° 05:43:43 10° 123° (ESE) 3,627 ? -20.5°
Sets 05:47:00 0° 132° (SE) 4,607 ? -20.0°
